Theta_e
288 291 291 293 293 292 291 291 291 290 291 290 287 288 292 293 287 287 293 293 291 293 296 297 298 299 298 298 298 299 298 296 297 298 299 301 302 302 300 301 301 300 301 301 301 300 300 299 298 298 297 297 298 298 297 296 297 298 297 297 297 297 297 298 298 297 296 295 294 294 293 293 292 293 293 293 293 293 295 294 294 295 294 291 290 290 290
288 288 291 293 292 291 291 291 292 292 291 290 290 291 292 293 291 293 294 293 293 296 297 298 300 302 302 301 300 297 296 297 300 300 299 300 301 302 303 303 303 302 301 301 301 301 300 298 298 298 298 297 297 296 296 294 295 294 295 296 296 295 296 295 293 294 294 293 292 292 293 293 292 291 291 292 292 291 293 294 292 290 289 289 290 289 289
285 287 290 291 292 291 288 291 292 292 292 292 292 292 292 293 292 293 293 293 292 298 300 298 300 301 302 299 298 299 300 299 298 298 299 300 301 303 303 304 303 302 302 301 301 300 300 299 298 298 298 298 297 296 296 294 294 294 294 294 295 295 295 293 292 292 292 291 291 292 292 292 291 290 290 290 290 290 290 289 288 288 288 288 288 288 288
282 287 288 289 290 289 288 288 289 290 290 289 290 289 292 291 289 291 291 289 290 296 299 299 298 297 297 297 299 299 300 301 300 298 299 300 301 302 304 304 303 301 302 301 300 300 300 299 298 297 298 298 297 296 296 294 294 294 294 294 294 294 294 292 291 291 291 290 291 291 290 289 290 290 289 288 288 288 288 287 287 287 287 287 288 288 288
283 285 288 286 286 285 284 285 289 291 292 292 293 294 294 293 294 291 287 289 296 296 298 297 297 297 297 298 299 300 301 301 301 300 299 300 301 302 303 303 303 303 302 302 302 302 300 300 299 298 298 298 297 297 296 296 294 292 294 294 294 293 291 291 290 291 290 290 289 289 289 288 288 288 288 287 287 286 286 286 286 286 286 286 286 287 287
283 283 285 286 284 279 282 294 296 293 291 291 290 291 293 294 295 293 295 296 297 297 297 297 297 297 298 299 302 304 303 303 303 303 301 300 301 302 304 303 303 303 303 303 302 302 301 301 300 299 298 298 298 298 297 295 293 292 293 293 294 292 291 290 290 290 290 289 289 288 288 287 287 287 287 287 287 287 286 285 285 285 285 285 286 286 287
282 283 284 282 277 280 293 293 298 296 295 294 293 294 295 295 296 296 296 297 297 297 298 299 299 300 301 302 302 303 304 305 304 303 303 304 301 301 302 302 302 302 303 303 302 300 300 300 300 298 297 297 297 297 296 294 294 293 294 293 293 292 291 291 290 290 289 289 288 287 287 287 286 287 287 286 286 285 285 285 285 284 284 285 285 286 287
283 281 284 277 278 289 294 293 293 297 296 295 294 292 294 295 296 296 295 296 298 299 299 298 300 300 301 300 301 301 302 303 303 303 303 304 304 301 302 302 304 304 302 302 302 302 301 300 298 297 296 296 296 295 294 293 293 293 293 293 293 292 291 291 290 290 289 289 289 288 287 286 286 286 286 285 285 285 285 285 284 284 284 285 285 286 286
280 281 283 284 291 289 290 291 288 291 290 291 290 286 290 295 296 296 296 296 298 299 299 300 300 298 295 295 297 300 299 300 301 301 302 304 304 304 304 303 304 302 301 301 302 302 299 299 297 296 296 295 295 294 293 293 292 292 293 293 293 292 291 290 290 290 290 289 288 288 287 286 286 286 285 285 285 285 284 284 284 283 284 284 285 285 286
285 282 280 282 281 279 287 293 294 296 297 297 296 293 290 298 297 298 296 296 297 297 298 299 299 298 293 292 295 300 301 301 302 300 301 301 303 302 301 298 299 300 301 301 299 300 298 297 297 296 295 294 294 293 292 292 291 292 292 293 294 292 292 291 290 290 290 289 287 286 286 286 286 286 286 286 285 285 284 283 283 283 283 284 284 285 285
282 283 281 280 279 283 291 290 293 296 297 298 297 290 286 296 298 298 297 296 297 297 297 297 298 294 290 292 296 301 303 303 302 300 300 299 299 300 298 299 299 299 298 298 297 296 297 295 295 295 294 293 293 292 292 292 291 291 291 293 294 293 292 291 290 290 289 288 287 287 286 286 286 286 285 284 284 284 284 284 283 283 283 283 283 284 285
283 284 282 281 284 284 288 292 293 294 297 298 293 282 284 297 297 299 298 297 297 298 298 298 296 293 290 293 298 301 302 303 302 300 300 299 298 298 296 294 295 295 295 294 294 295 295 296 294 294 293 293 291 292 291 292 291 291 291 293 295 294 293 291 290 289 288 287 287 286 286 286 286 285 285 284 283 283 283 283 282 282 282 282 281 282 283
284 284 284 284 285 289 292 292 291 293 298 295 285 281 290 296 295 297 299 298 299 299 298 298 294 296 298 300 300 294 295 296 295 295 293 293 293 295 294 294 290 294 295 297 297 296 296 294 292 292 292 292 291 291 291 290 290 291 292 293 294 293 293 290 289 288 287 287 286 286 286 286 285 284 284 283 283 282 281 281 281 280 280 280 279 279 280
283 284 283 283 286 291 292 290 292 296 292 284 284 294 293 293 290 293 297 298 298 299 298 297 297 299 299 300 298 296 295 296 294 293 292 292 291 290 289 288 291 293 293 294 293 293 293 292 291 292 292 291 291 291 290 290 291 292 292 292 292 292 291 290 288 287 286 286 286 286 286 285 284 283 283 283 282 281 281 280 279 278 278 278 278 278 279
284 283 281 279 278 289 293 290 289 291 288 291 297 293 288 291 292 292 293 296 297 297 296 297 298 298 298 297 298 297 294 293 294 293 293 293 294 293 292 291 290 293 293 293 293 292 291 291 291 291 290 289 290 289 289 290 291 291 291 290 290 289 288 287 286 286 285 285 285 285 284 284 283 282 281 281 280 280 279 278 278 277 277 277 277 277 277
281 282 280 281 288 290 293 293 289 291 295 298 295 295 292 291 291 293 294 293 295 295 297 296 296 297 296 295 293 293 293 292 291 290 290 290 290 290 289 290 291 292 293 292 291 289 290 290 290 290 289 288 288 288 289 291 290 289 288 287 287 286 285 285 285 285 284 284 284 283 283 283 282 281 280 280 279 279 279 278 277 276 276 276 277 276 276
287 285 288 288 289 293 296 297 297 297 298 294 293 296 297 295 292 292 295 295 293 294 296 296 295 294 294 295 295 294 294 293 291 291 291 291 291 291 291 290 288 290 292 290 289 288 289 288 289 288 289 288 287 287 289 288 287 287 287 286 286 285 284 284 284 283 283 283 283 283 282 282 281 280 279 279 278 278 278 278 277 277 276 276 277 277 277
291 290 290 290 290 291 294 292 293 298 296 291 292 294 295 296 296 293 296 296 293 292 294 294 292 293 295 293 293 293 293 293 291 290 289 287 287 287 287 287 287 287 288 287 287 287 287 288 289 288 289 288 287 288 287 287 287 286 285 285 284 284 283 283 283 282 282 281 281 281 281 282 281 280 279 278 278 278 278 278 278 277 276 276 277 277 277
289 285 293 289 291 292 292 295 291 292 296 294 291 291 296 297 293 292 293 295 294 293 292 295 294 294 292 292 293 292 292 291 289 289 289 288 288 288 288 287 284 286 286 286 286 286 286 286 286 287 287 288 287 286 285 286 285 285 284 284 283 283 282 282 281 281 281 280 280 280 280 281 281 280 280 279 279 278 278 278 278 278 277 277 277 277 277
288 289 293 292 292 292 292 294 293 293 294 293 291 294 294 294 292 293 292 291 291 291 291 293 294 294 292 292 291 291 291 291 288 288 288 287 285 285 285 284 284 286 286 286 285 285 286 286 285 286 285 284 284 284 284 284 284 284 283 283 283 282 281 280 280 280 280 277 278 279 279 280 280 279 279 280 279 278 278 278 278 278 277 277 277 277 277
291 291 290 292 291 291 292 293 294 296 296 295 294 292 289 288 290 289 288 289 291 292 295 293 293 293 291 292 292 291 291 289 287 288 288 287 286 284 283 283 283 286 285 284 284 284 284 284 283 283 282 281 282 283 283 283 283 283 283 281 282 280 280 280 280 279 280 279 279 279 279 279 280 280 279 279 279 279 280 281 281 280 279 279 279 278 277
287 288 290 290 288 288 291 292 293 293 295 295 295 291 288 289 290 290 289 288 287 290 289 292 292 294 293 290 289 289 289 289 288 287 286 284 283 282 282 281 282 282 282 283 283 282 281 281 281 280 279 279 280 281 282 282 283 283 281 281 280 279 279 279 279 279 279 279 279 279 278 278 278 278 277 279 280 280 279 280 280 280 280 280 280 279 278
288 293 292 294 296 295 295 295 294 295 294 294 294 291 291 290 292 291 291 290 288 288 287 285 289 292 292 290 288 288 288 288 287 286 285 283 282 281 280 281 281 281 280 280 281 280 280 279 279 278 278 277 278 279 280 281 282 281 280 281 280 279 278 279 278 278 278 278 278 278 278 278 277 277 277 277 278 278 279 280 280 279 280 281 280 280 278
294 294 293 295 295 294 295 296 296 295 294 293 294 294 294 293 292 290 292 293 294 292 287 282 284 290 290 288 288 288 287 285 284 284 283 283 282 281 281 283 280 279 279 280 280 279 279 277 276 276 276 276 276 277 278 279 280 281 281 281 280 279 278 278 276 277 278 277 277 277 277 277 277 277 277 276 276 278 278 278 279 279 279 280 280 281 280
293 293 294 295 297 296 292 294 296 295 293 293 294 294 293 293 292 290 291 292 293 292 289 287 282 283 287 287 288 288 286 283 283 282 280 279 280 280 280 279 279 280 280 280 278 277 277 276 275 275 275 274 275 275 276 277 278 279 279 280 280 278 278 277 276 276 276 276 276 276 276 275 275 276 276 277 276 276 277 278 278 279 279 279 279 280 280
290 291 292 292 291 289 288 291 292 293 292 291 293 293 291 289 291 288 290 291 289 290 291 288 284 281 285 286 285 284 282 281 279 279 280 279 278 278 279 279 279 278 278 277 276 275 274 274 274 274 273 272 273 273 274 275 276 277 277 278 278 278 277 276 276 276 276 276 276 276 276 276 276 276 276 277 277 278 276 276 276 278 279 279 279 280 280
289 291 291 290 290 290 290 293 294 292 292 292 293 291 288 288 284 285 282 282 283 285 287 287 285 282 282 282 281 282 281 279 279 280 280 279 279 280 278 277 277 276 275 274 274 273 272 272 273 272 271 270 269 270 272 274 275 275 275 276 277 274 272 274 277 276 277 276 276 276 276 275 275 275 276 276 277 277 277 277 276 276 276 277 279 280 278
289 291 294 292 289 290 291 289 283 289 290 290 289 285 282 282 282 282 281 281 280 279 279 279 280 279 279 279 280 278 279 279 279 278 279 279 278 275 274 274 274 274 273 273 272 272 271 272 271 271 270 269 269 269 270 272 274 274 274 275 276 277 275 274 276 277 276 276 276 276 275 275 276 276 276 276 276 276 277 277 277 276 276 277 277 278 278
289 287 279 284 290 290 286 284 286 285 283 282 283 282 283 283 282 284 283 283 281 280 280 279 280 281 281 280 280 280 280 279 279 279 279 276 273 273 273 273 273 272 271 271 271 271 271 271 271 271 271 269 267 267 269 271 273 273 274 274 276 276 276 275 275 276 276 275 275 275 275 274 275 275 275 275 275 276 276 276 276 277 277 276 275 276 277
285 279 282 283 284 287 288 287 285 283 281 281 282 282 284 286 284 285 283 281 281 283 281 279 278 278 279 279 280 280 279 280 280 277 274 273 272 271 272 272 272 271 271 270 270 270 270 270 270 271 271 268 267 267 268 271 272 271 271 272 274 275 274 274 274 274 273 274 273 272 273 274 274 275 274 275 275 275 275 276 276 276 276 275 275 275 274
280 281 282 283 284 286 288 287 283 280 281 281 283 283 283 285 286 283 281 281 281 281 277 279 278 276 277 278 278 279 279 277 275 273 272 271 271 272 273 274 278 277 276 273 269 269 269 270 270 272 269 267 266 266 268 271 271 270 271 272 272 270 270 271 273 274 274 273 272 272 273 273 273 273 273 274 274 274 275 275 275 275 275 274 274 274 275
281 280 280 280 282 282 281 281 281 280 280 281 282 283 284 284 283 283 281 280 281 280 278 277 277 277 275 274 274 274 273 272 270 270 270 270 271 270 271 272 272 270 270 269 269 270 270 271 270 269 266 266 266 266 269 270 271 272 273 270 272 272 270 270 271 271 272 271 272 272 272 272 272 272 272 273 273 273 274 274 274 275 275 274 273 273 274
283 281 279 278 278 278 279 279 281 280 279 280 283 284 283 282 284 284 282 281 278 278 279 279 276 273 272 273 273 272 271 271 270 270 270 269 269 269 269 269 269 269 268 269 269 270 270 270 269 267 266 266 266 267 268 269 270 272 272 272 272 271 268 270 271 271 270 270 270 271 271 271 272 272 272 272 272 272 273 273 273 274 274 274 274 274 274
287 288 288 286 287 286 284 281 280 280 280 280 280 281 281 281 282 281 280 279 279 278 279 276 272 271 272 273 272 272 272 273 273 271 268 267 267 267 267 268 268 267 267 268 269 270 269 269 268 268 267 266 266 266 267 267 269 270 270 270 270 269 269 269 268 269 269 269 270 268 269 269 270 271 270 271 271 271 271 271 272 272 273 273 274 273 273
277 277 280 283 280 283 285 286 281 280 280 279 277 278 278 279 279 279 277 279 279 277 273 271 271 271 272 273 273 274 276 277 273 269 267 267 266 266 267 268 268 268 267 267 267 267 266 266 266 266 266 265 265 265 265 266 268 268 268 268 268 269 269 268 269 269 269 269 269 268 268 268 268 268 268 269 270 270 270 270 270 271 271 271 272 272 271
274 276 277 277 277 279 280 281 281 280 280 279 277 276 275 275 275 276 275 273 272 272 272 271 272 273 273 273 273 272 271 270 269 267 266 266 266 268 269 269 269 268 267 267 266 266 267 266 264 264 267 266 265 264 265 265 265 266 266 267 267 267 267 267 268 268 268 268 268 268 268 267 267 267 267 268 268 268 269 269 269 269 270 270 271 271 270
269 271 271 271 273 274 274 275 277 277 275 274 273 273 271 270 268 268 270 271 272 272 271 272 272 272 270 269 268 268 269 269 269 267 266 266 268 269 269 269 270 270 269 268 266 266 266 265 263 264 266 267 266 264 263 262 265 265 265 265 266 266 266 266 266 266 266 266 267 267 266 266 266 267 267 267 267 268 268 268 268 268 269 269 270 270 270
267 267 267 267 267 267 268 269 270 270 268 266 266 266 266 266 266 267 267 268 269 270 270 271 269 268 267 267 267 266 266 266 266 266 266 267 269 269 269 270 271 271 269 267 266 266 266 264 262 264 265 265 265 264 263 261 261 264 265 265 265 265 265 266 266 265 265 265 265 266 266 266 266 266 267 267 267 267 267 267 268 268 268 269 269 269 269
267 267 266 266 266 266 266 266 266 267 266 265 264 264 265 265 266 266 265 265 266 268 269 268 268 268 267 266 265 263 263 264 265 266 266 267 266 265 263 263 263 264 264 264 264 264 264 263 263 264 264 262 262 262 261 261 260 263 263 264 264 264 264 265 265 264 264 264 265 265 265 265 265 265 266 266 266 266 266 266 266 267 267 268 268 268 268
266 265 265 265 264 264 263 263 263 263 265 266 266 265 265 266 266 266 266 265 264 266 269 269 270 269 267 265 264 263 261 260 263 265 265 264 263 263 263 263 261 261 262 262 263 263 262 261 262 263 263 262 263 264 262 262 262 262 262 263 263 263 264 263 263 264 264 264 264 263 264 264 264 264 265 265 265 265 265 266 265 265 266 266 267 267 267
265 265 265 264 264 264 263 261 261 261 261 262 263 263 264 265 266 265 264 263 263 264 266 269 268 266 264 263 261 260 260 261 262 262 264 267 268 268 267 264 262 260 261 261 261 261 260 260 262 262 262 262 262 261 263 261 262 263 263 262 262 262 263 263 263 263 263 263 263 264 264 264 264 264 264 264 264 265 265 265 265 265 266 266 266 266 266
264 264 264 264 262 262 262 261 261 260 259 260 260 261 262 263 263 262 262 262 261 261 261 262 263 263 262 261 261 260 260 261 260 260 260 263 266 268 265 263 261 259 259 259 260 260 261 260 260 259 260 261 261 259 259 262 262 262 262 262 262 262 262 262 262 262 263 263 263 263 263 263 263 263 264 264 264 264 264 264 264 265 265 265 265 265 265
262 262 261 262 262 261 260 260 259 259 258 258 258 259 260 261 262 262 261 261 261 261 260 260 260 260 261 262 261 260 260 260 260 259 258 258 257 259 262 261 260 258 258 259 259 260 259 259 259 260 259 259 260 259 260 262 261 261 261 261 261 261 261 261 261 262 262 262 262 262 262 262 263 263 263 263 264 264 264 264 264 264 264 265 265 265 265
259 260 261 261 261 261 261 261 260 259 258 257 258 258 258 258 259 259 260 259 259 259 260 259 259 259 260 261 262 261 260 260 260 261 260 260 260 258 257 257 259 258 257 258 259 259 259 258 259 258 258 258 258 259 260 260 260 260 260 260 260 261 261 261 261 261 261 261 261 262 262 261 262 262 262 262 262 263 263 263 263 264 264 264 264 264 264
258 258 258 259 260 259 259 259 258 257 257 257 257 257 257 257 257 257 258 257 257 257 258 257 257 257 257 257 258 258 258 258 258 260 263 262 261 260 258 255 256 258 257 257 258 258 258 258 258 257 258 258 258 258 259 259 259 259 259 259 260 259 260 260 260 260 260 260 260 261 261 261 261 261 262 262 261 262 262 262 262 263 263 263 263 263 263
257 257 257 257 257 257 258 258 258 259 258 258 257 256 256 256 255 255 256 256 256 256 256 256 256 256 256 256 256 256 256 256 255 255 255 257 259 258 257 255 256 256 256 256 257 257 257 257 257 257 257 257 258 258 258 258 258 258 258 258 258 259 259 259 259 259 259 259 260 260 260 261 261 261 261 261 261 261 261 261 261 262 262 262 262 263 263
256 256 257 257 257 258 258 259 260 260 260 259 258 256 255 255 255 254 254 254 254 254 254 254 254 254 254 254 256 258 258 256 255 255 255 255 255 255 255 254 255 255 256 256 257 256 256 256 256 257 257 257 257 257 257 257 257 257 257 257 258 258 258 258 258 259 259 259 259 259 259 260 260 260 260 260 260 260 260 260 260 261 261 261 261 261 261
255 255 255 256 256 257 257 257 257 256 255 255 255 254 254 255 255 254 254 254 254 254 254 253 253 253 253 254 254 253 254 258 259 257 256 254 255 255 254 255 255 255 255 255 255 255 255 255 256 256 256 256 256 256 256 256 256 256 256 256 257 257 257 258 258 258 258 258 258 258 258 259 259 259 259 259 259 260 260 260 260 260 261 261 261 261 261
254 254 255 255 256 256 256 256 255 255 254 254 254 254 254 254 255 254 254 254 254 254 254 253 253 253 253 253 252 253 253 253 256 257 256 253 253 254 254 254 253 254 255 255 254 255 255 255 255 255 255 256 256 256 256 256 256 256 256 256 256 257 257 257 257 258 258 257 258 258 258 258 258 258 258 259 259 259 259 259 259 260 260 260 260 260 261
254 254 254 254 254 254 255 255 254 254 254 253 253 254 253 254 255 255 253 252 253 253 254 254 253 253 253 253 253 253 252 252 253 252 253 253 252 253 253 254 254 254 254 254 254 254 254 253 253 254 254 255 255 255 255 255 255 255 256 256 256 257 257 257 257 257 257 257 257 257 258 258 258 258 258 258 259 259 259 259 259 259 258 259 260 260 260
253 252 252 251 251 251 251 252 252 252 252 252 252 252 252 252 253 253 252 252 253 253 253 254 253 253 252 252 253 252 252 252 253 252 253 253 253 253 253 253 253 253 253 253 253 253 253 253 253 253 254 254 254 254 254 254 255 255 255 255 255 256 256 256 257 256 256 257 257 257 257 257 257 257 258 258 258 258 258 258 259 259 259 260 260 260 260
250 250 250 251 251 251 251 251 251 251 251 251 251 251 252 252 252 252 252 251 251 251 252 253 253 253 252 251 252 252 253 252 252 252 252 252 253 253 253 252 252 252 252 252 252 252 252 252 252 252 253 253 253 253 253 254 254 254 254 254 255 255 255 256 256 256 256 256 257 257 257 257 257 257 257 258 258 258 258 258 258 259 259 259 260 260 260
Wind_Speed
2 3 11 13 12 16 18 23 24 24 24 19 21 25 23 8 12 18 5 12 18 23 12 14 10 7 8 8 9 8 7 5 5 4 5 5 3 3 4 5 6 6 7 7 7 7 7 6 7 8 8 6 4 3 2 3 4 5 5 5 5 5 5 6 6 5 5 4 4 6 7 7 7 8 8 8 8 7 7 8 9 11 10 8 10 9 8
4 1 9 14 15 10 12 19 22 24 24 27 28 27 22 21 18 21 5 10 17 20 12 16 18 12 9 9 8 4 4 8 6 4 7 8 6 5 6 5 6 6 7 7 7 7 7 8 9 8 8 8 7 6 6 5 6 4 5 5 6 6 6 5 4 5 5 5 6 6 7 8 8 9 8 9 9 8 8 10 10 8 6 6 8 11 10
1 3 4 9 10 12 12 14 18 22 24 27 27 23 20 18 23 22 19 16 20 21 10 5 5 6 6 8 13 11 8 7 7 9 10 9 7 5 7 8 5 5 5 6 6 8 9 10 10 9 8 9 9 8 8 7 7 6 5 5 5 5 6 4 5 5 6 6 6 7 7 7 7 9 9 8 9 9 9 10 11 10 8 9 8 8 10
2 5 11 9 9 8 10 13 19 24 26 25 23 18 20 19 27 29 14 12 21 11 15 13 7 6 8 12 13 13 10 12 6 8 10 10 8 7 8 8 4 5 6 6 8 10 10 10 10 9 10 10 10 11 8 8 6 6 6 6 6 5 4 5 5 5 5 7 6 7 7 7 7 9 10 9 9 11 10 11 7 7 9 9 9 9 7
5 7 8 12 7 4 3 15 27 27 21 21 21 25 26 27 22 4 11 27 15 8 9 10 12 12 13 13 11 10 9 9 10 10 11 10 9 8 8 9 6 6 8 9 9 8 7 8 10 12 10 9 11 11 9 8 7 7 7 7 6 6 6 6 7 6 6 7 7 7 7 8 7 8 10 10 10 10 10 9 8 9 8 9 8 8 8
6 7 8 7 7 5 17 13 15 22 25 27 22 23 27 26 20 22 21 12 6 7 8 12 13 16 17 16 14 11 9 9 11 11 9 11 10 7 8 7 8 7 5 6 6 6 7 8 9 8 10 10 8 10 9 8 8 8 7 7 7 6 7 7 7 7 8 7 7 8 8 8 8 9 9 11 9 9 8 7 7 8 6 8 8 9 8
8 6 8 7 9 16 13 7 14 24 24 23 27 26 23 26 26 26 21 19 16 7 10 10 11 12 14 12 14 14 12 12 11 13 14 9 8 10 10 10 8 10 9 5 5 6 8 8 7 7 8 7 6 8 9 9 7 8 7 7 8 8 7 7 8 8 8 9 9 8 8 9 9 9 10 9 8 6 7 8 8 8 8 7 7 6 7
4 1 6 7 15 14 5 3 4 14 22 23 19 17 17 17 18 23 25 28 20 17 12 9 9 12 11 7 7 8 10 10 12 12 11 11 10 11 9 12 13 10 7 7 7 7 6 6 6 7 8 8 8 10 8 8 8 8 9 9 8 8 8 9 9 9 9 9 9 9 10 9 9 9 9 10 10 6 6 4 4 4 4 4 8 8 5
12 11 10 13 6 11 9 8 6 10 12 11 16 13 21 25 23 22 24 24 21 18 17 13 10 7 5 9 11 8 14 16 9 10 12 11 13 12 11 9 8 1 4 7 6 4 5 7 7 8 7 9 8 9 10 8 8 7 8 8 9 9 9 9 9 10 10 10 10 11 10 11 10 10 11 10 6 7 7 6 7 6 6 6 5 8 10
2 10 5 4 4 10 14 1 5 10 8 15 18 16 18 10 19 19 20 24 20 19 18 13 12 2 4 12 15 13 15 10 8 10 10 12 12 10 6 3 4 5 5 3 3 5 6 7 7 6 8 9 9 8 10 9 9 9 9 9 10 9 9 9 10 10 10 10 10 10 11 11 11 9 7 5 6 6 8 11 8 7 7 7 5 5 8
5 8 11 10 13 15 6 9 12 14 15 14 9 4 16 7 14 19 24 23 21 19 17 19 11 6 9 15 12 16 8 7 9 12 11 11 11 9 7 6 6 6 3 3 3 4 5 6 7 9 9 10 9 9 10 11 10 10 10 9 11 11 10 9 9 9 8 8 9 10 10 9 9 10 10 8 5 5 4 4 7 6 7 7 6 5 5
10 11 9 12 8 5 6 10 8 9 11 17 13 5 7 7 20 16 20 24 22 20 18 10 9 12 12 13 13 8 4 6 6 10 12 11 11 10 6 4 3 3 5 6 4 6 8 7 8 9 10 9 9 10 9 10 11 11 12 13 11 9 8 8 9 8 7 8 8 9 9 8 7 6 5 6 7 7 6 5 7 6 6 6 8 6 6
12 12 6 3 4 3 5 12 13 14 16 15 10 14 3 4 10 10 11 16 15 12 12 10 10 13 14 13 10 6 1 3 1 1 2 2 2 3 3 4 3 5 5 6 7 7 3 6 8 8 8 9 9 9 8 8 10 9 7 6 7 9 8 8 8 7 6 8 10 8 8 8 8 7 5 8 8 8 8 6 7 7 7 6 6 6 4
11 12 9 9 4 1 9 1 12 18 14 9 14 3 1 4 4 7 10 11 13 9 10 9 11 12 16 19 1 1 3 2 1 0 1 0 0 1 1 1 2 3 3 4 4 3 4 7 7 8 8 8 7 7 8 10 7 5 7 7 7 9 8 8 6 6 7 6 7 8 7 8 9 7 5 7 7 8 5 7 10 10 8 6 6 5 5
3 3 11 1 12 11 18 15 4 7 7 4 7 4 0 1 5 9 6 9 8 11 11 14 15 16 11 8 9 5 3 4 4 4 5 5 5 4 2 2 2 4 5 4 4 4 4 7 8 8 9 8 7 5 8 7 6 7 7 7 8 8 7 7 7 8 7 8 7 6 7 8 10 8 6 7 6 6 9 8 11 11 7 6 6 7 6
12 13 13 12 5 13 21 18 11 14 8 1 8 9 3 2 4 6 6 6 7 10 12 13 13 12 9 4 4 5 6 6 4 3 3 2 1 1 1 1 2 3 4 3 4 3 3 4 5 5 9 8 7 7 6 5 6 6 6 6 6 7 6 7 7 7 6 7 6 5 7 7 7 7 7 7 6 7 6 8 9 8 7 7 6 6 7
15 15 18 2 6 18 16 19 9 14 12 6 4 2 8 7 5 5 4 8 9 12 11 9 10 10 11 13 9 9 9 8 7 7 7 4 3 2 2 3 2 2 4 6 5 3 4 3 4 3 4 7 7 7 3 6 4 6 6 7 7 7 7 7 6 6 6 5 6 6 6 7 8 8 9 8 8 6 8 7 7 7 8 7 7 7 7
10 6 1 3 5 9 13 2 1 14 14 1 4 6 7 6 6 10 8 8 9 10 8 9 5 8 8 9 7 7 5 6 5 3 3 3 2 2 3 3 4 3 4 4 5 5 4 4 3 3 2 4 8 4 5 6 7 7 8 8 8 7 7 6 7 7 8 7 6 6 7 6 6 7 8 9 7 8 7 6 6 6 7 7 7 7 6
11 14 18 10 9 6 12 10 1 4 6 8 6 4 6 7 9 12 6 8 12 12 12 10 10 10 6 7 5 4 3 4 5 5 4 4 4 4 4 3 4 4 4 5 5 4 5 2 2 2 2 1 2 4 6 5 7 8 8 8 8 8 8 6 7 6 8 6 6 6 6 6 5 6 6 7 7 8 8 8 8 7 7 8 8 8 8
17 21 13 11 9 10 11 11 7 7 11 9 8 8 6 2 4 5 3 6 7 8 10 9 9 7 7 8 7 5 6 6 5 6 6 6 4 1 2 3 2 3 4 4 6 4 4 3 2 2 3 3 4 6 5 6 7 8 8 8 6 7 6 5 5 6 6 9 9 6 7 7 7 7 6 7 10 10 12 12 12 10 10 10 11 10 9
16 3 3 12 11 8 10 8 8 6 11 14 14 9 2 2 5 3 2 2 4 12 11 11 7 8 8 8 9 9 6 6 5 6 5 5 5 5 4 3 4 3 4 6 6 5 4 3 3 5 5 3 3 5 4 6 7 8 6 7 7 8 6 4 5 5 5 5 5 5 5 5 4 5 8 9 9 6 7 5 6 8 10 10 7 7 7
11 17 16 16 13 11 10 11 16 15 13 14 15 7 4 7 10 8 9 4 1 2 2 6 8 9 7 6 5 8 6 6 6 7 6 6 6 4 3 3 3 4 3 6 7 6 4 3 4 5 5 3 2 2 4 4 6 7 7 6 7 6 5 5 4 5 4 5 4 4 5 5 5 2 3 3 2 3 6 4 4 4 3 4 4 6 8
21 22 13 19 14 8 11 17 16 16 13 10 13 16 14 12 12 11 12 9 3 7 5 1 6 7 7 9 6 7 5 6 5 6 8 7 6 5 5 6 5 5 4 4 6 6 4 4 5 5 4 3 3 2 1 2 3 6 6 5 5 4 5 4 5 5 4 5 5 4 4 4 4 4 4 3 4 2 3 2 3 3 5 4 3 5 7
7 10 17 15 11 14 11 14 15 16 11 13 16 17 16 16 13 12 12 13 14 11 6 4 4 5 5 6 9 9 5 5 6 6 5 4 4 5 5 4 6 6 5 5 5 6 4 4 6 5 5 3 2 2 2 2 2 4 5 5 5 5 4 4 6 5 4 4 5 5 4 4 5 5 5 5 3 4 4 3 3 5 4 5 7 10 11
11 10 14 16 18 11 4 9 13 13 11 14 14 15 16 13 10 10 12 9 5 12 12 9 6 3 6 7 7 9 9 6 6 7 7 6 6 5 5 6 7 6 4 3 4 4 4 5 6 5 5 3 2 2 2 2 3 5 4 3 4 4 4 5 5 6 4 5 5 5 5 6 6 6 6 6 6 5 4 6 6 7 7 7 7 8 11
7 9 6 6 6 5 3 7 2 8 10 11 11 8 7 8 11 10 9 7 6 6 9 10 10 5 5 8 7 7 7 7 8 7 7 6 6 5 6 7 6 4 5 5 5 5 6 8 7 6 5 2 2 2 2 2 3 3 3 3 3 4 5 5 5 5 5 4 5 4 5 4 5 5 5 4 4 4 5 4 4 5 7 9 10 11 12
3 10 12 7 6 5 3 11 10 14 16 14 13 8 5 6 8 4 4 3 2 1 3 7 7 7 6 6 7 5 9 9 7 5 5 6 7 5 4 4 6 6 7 6 5 5 7 7 6 5 5 2 0 1 3 4 4 4 4 4 2 3 6 6 4 4 4 4 4 4 4 5 5 5 5 4 4 5 6 6 7 6 5 6 9 12 9
9 10 12 15 13 14 13 8 3 4 7 9 10 10 7 8 9 8 7 5 4 5 5 5 10 13 11 6 8 9 7 9 8 7 6 6 5 4 4 6 6 6 6 8 5 5 6 6 6 5 4 2 1 0 2 4 4 4 4 4 3 3 3 4 3 3 3 4 4 4 4 5 4 4 5 5 6 4 4 4 4 3 2 3 4 7 10
9 8 4 4 1 6 9 10 7 8 7 6 7 8 10 10 7 7 7 5 6 6 7 5 3 3 6 7 6 9 8 8 8 8 7 6 5 5 5 6 6 6 6 7 4 4 5 6 5 5 3 1 1 2 2 4 3 4 3 3 3 2 3 3 3 3 3 3 3 3 4 4 4 4 5 5 3 4 4 5 5 4 4 4 4 5 7
6 3 4 4 7 12 13 8 8 7 8 8 11 8 8 11 10 8 10 8 8 10 7 6 7 7 6 9 8 8 11 11 9 7 7 6 5 5 5 6 8 7 6 7 6 5 6 5 5 4 2 2 2 2 3 3 3 4 3 3 1 2 2 2 3 2 3 3 3 5 4 4 4 4 5 5 5 6 5 6 6 5 5 5 5 6 8
5 5 4 6 6 5 9 10 8 7 7 6 9 10 5 5 10 11 10 8 4 5 6 8 8 9 7 7 7 5 6 8 8 7 7 6 5 4 4 4 5 6 6 6 6 5 6 5 4 3 2 3 3 3 3 2 3 3 3 2 2 3 4 5 4 3 3 3 4 4 4 4 4 4 4 4 5 5 5 5 6 6 4 5 6 7 6
12 7 7 5 4 6 6 5 10 9 8 7 9 11 13 14 14 15 11 11 11 10 10 9 11 10 8 8 8 9 10 9 10 7 7 6 5 4 3 5 7 8 7 7 5 3 3 4 4 3 3 2 3 3 2 2 2 2 2 3 3 2 4 5 2 2 1 2 3 3 3 4 4 4 4 4 5 5 5 5 6 6 6 6 6 7 5
11 7 3 3 4 3 5 7 11 10 11 14 13 7 5 2 3 7 10 9 9 7 8 8 7 8 9 9 10 11 10 8 7 7 7 7 6 5 5 5 6 8 7 4 4 3 4 4 3 3 2 3 3 2 2 2 1 1 1 1 1 2 3 3 2 2 2 2 2 3 3 3 3 4 5 4 4 4 5 5 5 5 6 5 5 5 5
10 9 12 17 16 15 16 13 8 9 7 5 3 5 5 4 6 8 9 8 9 10 9 9 10 9 8 9 10 10 12 11 8 7 7 8 8 7 6 6 6 7 7 5 4 4 4 4 3 3 3 3 2 2 2 1 1 1 2 1 2 2 2 2 2 2 2 1 1 2 2 2 3 3 3 3 4 4 4 5 4 4 5 5 5 3 6
1 1 4 2 4 5 1 8 14 15 14 12 7 5 4 5 7 7 7 9 9 6 7 9 9 8 8 9 9 8 7 9 9 9 8 7 8 8 8 9 9 10 10 8 6 5 4 3 3 3 4 4 3 3 2 2 2 2 2 2 1 1 1 1 1 2 1 1 1 2 2 3 3 3 3 3 3 3 4 4 5 5 5 5 5 3 4
6 7 8 8 7 6 7 8 6 6 6 6 7 7 7 7 7 8 8 6 6 8 7 8 8 7 7 7 7 7 8 8 8 8 9 9 8 6 8 9 10 10 9 8 7 5 4 4 5 5 3 3 3 3 3 2 2 2 2 2 2 1 1 1 0 0 0 0 1 2 2 2 2 2 2 2 3 3 4 4 5 5 6 6 5 5 4
9 7 7 9 8 11 11 9 8 9 10 10 9 9 10 10 10 8 8 8 7 7 6 6 8 8 7 6 6 6 6 5 5 6 7 6 5 7 9 8 8 8 6 6 3 4 5 5 3 4 4 3 3 3 3 2 1 1 2 2 2 2 2 1 1 0 1 1 1 1 1 1 2 2 2 3 4 4 4 5 4 5 5 5 5 6 5
10 10 10 9 10 14 13 11 11 13 16 14 13 11 9 11 9 9 9 8 7 5 5 6 8 9 8 7 7 8 7 6 7 7 7 7 6 10 7 6 4 3 4 3 2 2 3 5 5 4 4 4 3 3 3 3 3 1 2 2 2 1 1 0 0 0 0 1 1 1 2 2 2 3 3 3 4 4 4 5 5 5 5 5 6 6 6
11 10 11 10 11 12 13 13 14 14 13 12 14 11 8 9 9 10 12 10 7 6 8 9 8 9 8 9 8 7 7 5 5 6 6 7 7 10 7 5 5 5 4 3 3 4 3 3 4 4 4 3 3 3 3 4 3 2 2 2 1 0 0 0 0 1 1 1 1 1 2 2 3 3 3 3 4 3 4 5 5 4 6 6 6 6 6
9 9 8 9 11 11 12 13 13 13 13 10 11 11 8 9 9 10 10 10 8 6 6 5 7 7 8 8 8 7 5 5 5 6 8 9 10 11 8 6 5 5 4 3 2 4 4 4 4 4 4 3 3 3 3 2 2 1 1 0 0 0 0 0 1 1 1 1 2 3 3 3 3 3 3 4 4 4 4 4 6 6 6 7 7 7 6
9 9 10 10 11 11 13 12 12 11 11 11 12 10 8 8 10 12 10 9 6 7 8 7 8 8 8 7 7 6 5 5 6 5 2 5 7 3 6 5 1 2 4 4 3 2 4 6 3 3 4 4 3 4 2 2 0 0 0 0 0 1 1 1 1 2 2 2 2 3 3 3 3 4 4 4 5 5 5 5 6 6 6 7 7 7 7
9 11 12 13 10 10 10 8 9 12 12 12 11 10 10 8 9 10 8 7 7 7 8 9 9 10 9 8 7 6 6 7 7 7 8 6 3 4 6 3 1 0 2 2 3 2 2 4 5 3 2 4 3 4 3 1 0 0 0 0 1 1 1 1 2 2 2 2 2 2 2 3 3 4 4 4 5 5 6 5 6 6 6 6 7 7 7
10 10 10 12 11 10 9 9 12 12 11 10 10 10 10 9 9 8 8 8 8 8 8 7 7 7 6 6 6 8 6 6 7 8 8 7 7 6 4 4 2 1 2 1 2 3 2 1 4 4 2 1 3 6 4 0 0 0 1 1 1 1 2 2 2 2 2 2 4 4 3 3 5 7 7 7 7 7 7 7 8 8 8 8 7 8 8
9 9 9 9 10 9 9 10 9 10 13 9 7 8 10 10 9 8 8 7 8 8 7 6 6 6 5 4 4 5 3 3 4 3 5 5 5 6 5 2 2 4 3 0 1 3 3 0 1 4 5 2 2 4 2 0 0 0 1 1 2 3 4 3 4 4 4 4 5 5 5 5 5 6 6 6 6 6 6 7 7 7 7 7 8 8 9
10 9 9 11 11 9 9 9 9 10 8 8 8 8 8 9 9 9 7 7 7 6 6 5 5 4 3 3 4 4 3 2 2 2 2 4 5 2 3 1 1 2 4 4 1 1 2 2 1 2 4 6 4 2 1 1 1 1 1 2 3 3 3 3 4 4 5 5 5 5 5 5 6 6 6 6 6 7 7 7 7 7 7 8 8 8 8
10 9 9 9 10 9 7 8 7 8 8 8 10 10 7 6 6 7 8 7 6 5 5 5 4 4 3 3 5 5 5 4 4 5 5 4 2 1 3 4 1 1 3 5 2 0 0 6 5 1 1 4 5 1 0 1 1 1 1 2 3 2 3 3 4 4 4 5 5 5 5 5 5 6 6 5 6 6 7 7 7 7 8 8 8 8 8
7 8 9 9 8 8 7 6 5 7 7 10 9 6 7 6 4 4 5 7 7 4 4 5 5 4 5 4 2 2 3 4 3 3 3 4 2 1 1 3 5 3 1 1 4 2 1 1 4 5 2 2 2 2 1 1 1 1 1 2 2 2 3 3 4 4 4 4 5 5 6 6 6 6 6 7 7 7 7 7 7 7 7 7 8 8 8
6 7 7 8 9 7 7 7 8 8 9 9 5 3 4 6 5 3 3 4 5 7 5 4 4 5 4 5 5 3 3 3 3 1 2 1 3 2 1 1 3 7 4 1 0 4 4 2 2 5 6 2 1 1 2 1 1 1 1 2 2 2 3 3 3 4 4 4 4 4 5 5 5 6 6 6 6 6 7 7 7 7 7 7 7 7 8
7 7 6 6 7 7 7 7 7 6 5 4 5 3 2 2 4 4 3 3 3 4 5 5 4 4 4 3 4 4 1 2 2 1 1 1 1 2 2 1 3 2 3 2 1 1 4 5 3 3 3 3 1 1 0 1 1 1 1 1 2 3 3 3 4 4 4 4 5 5 5 5 6 6 6 6 6 7 6 7 7 7 7 7 8 7 8
5 4 4 4 4 4 4 4 5 4 2 2 3 4 3 1 3 4 3 2 2 1 2 3 3 2 3 3 1 2 4 2 1 1 2 2 1 2 2 3 2 2 2 3 2 2 2 4 4 3 2 1 2 1 1 1 1 1 2 2 2 2 3 4 5 6 5 5 5 5 5 5 6 6 7 6 7 7 7 7 7 8 11 10 9 9 8
3 4 4 3 4 4 5 5 4 4 3 2 2 2 3 3 3 3 3 3 2 2 2 2 2 2 1 1 1 2 2 4 2 2 1 2 3 1 2 2 3 2 2 2 2 2 2 1 2 2 2 1 1 1 1 1 1 1 2 2 2 3 3 4 4 4 4 5 5 5 5 5 6 6 6 6 6 6 7 7 7 7 7 7 7 7 7
3 4 4 3 4 4 4 4 4 4 3 3 2 2 2 3 2 2 2 4 2 1 0 2 2 1 1 1 1 2 1 2 3 3 2 2 2 2 2 2 2 2 2 2 2 2 2 2 3 3 3 2 2 1 3 3 3 3 2 3 3 3 4 4 4 4 4 5 5 5 6 6 5 6 6 6 6 6 6 7 7 7 7 7 7 7 7
Wind_Direction
70 166 147 166 162 177 175 186 193 193 197 195 206 219 223 150 206 231 216 176 223 249 203 213 221 207 206 217 218 225 247 260 236 234 267 289 300 265 239 241 230 212 216 213 213 208 211 204 210 218 221 221 219 217 244 119 175 180 170 173 176 173 178 185 185 168 150 137 128 135 138 140 141 143 146 142 141 151 158 145 145 150 151 134 134 126 128
115 195 177 165 171 174 175 192 194 196 195 201 208 220 213 215 227 239 267 206 228 244 210 210 216 234 260 237 185 196 229 249 267 293 290 288 296 294 277 240 222 222 215 211 208 205 204 205 207 204 212 214 210 204 195 184 191 181 163 179 174 174 181 179 152 144 141 138 138 136 140 148 150 143 141 144 142 146 151 152 144 123 114 120 127 139 138
95 168 150 173 169 162 184 198 202 202 204 208 212 217 217 224 247 256 253 259 266 249 189 159 186 219 266 323 307 285 272 253 253 270 269 272 269 263 270 258 229 227 228 221 213 214 215 207 203 197 197 204 201 202 199 189 186 171 171 169 178 178 177 154 147 141 143 142 142 145 146 142 148 145 141 142 139 137 140 145 133 140 135 133 138 141 141
189 186 161 159 163 174 192 203 205 206 203 210 211 215 213 203 222 230 224 251 248 259 148 194 173 184 228 238 237 241 248 264 242 226 251 254 247 246 262 268 222 224 227 222 219 221 215 209 199 195 195 196 196 201 188 188 179 168 168 170 171 174 151 141 142 148 150 144 144 143 139 143 149 142 137 140 143 143 145 142 131 130 143 144 139 140 133
166 189 157 140 113 113 285 242 215 199 201 209 209 217 216 216 224 232 195 228 236 98 157 171 195 198 214 220 234 248 250 254 259 252 238 237 238 242 249 264 244 214 212 217 218 221 210 203 206 206 190 180 198 195 183 181 163 169 172 167 164 154 149 154 155 153 150 152 143 140 144 143 146 142 139 142 144 150 155 144 125 141 142 139 143 139 138
155 149 148 124 127 192 229 243 141 171 195 202 205 216 215 218 208 222 219 232 68 144 158 185 200 211 219 221 225 223 232 240 250 242 226 233 236 228 247 250 251 250 222 214 219 220 215 214 211 196 186 192 182 186 178 166 167 165 169 166 159 152 156 165 160 155 152 146 142 145 145 144 145 145 148 153 154 151 139 141 147 137 135 141 140 146 145
155 153 128 150 184 225 232 51 157 184 197 198 207 220 218 220 219 233 247 253 241 169 191 198 209 219 227 227 236 237 235 242 246 254 263 248 207 226 226 239 239 236 231 215 201 208 215 207 194 180 188 183 159 171 170 172 173 167 175 165 169 165 163 162 162 158 156 156 153 150 149 151 150 153 156 153 154 147 150 153 152 153 149 146 147 141 135
52 141 170 176 226 233 32 66 150 187 195 200 201 235 234 227 221 225 236 242 241 245 230 206 229 247 256 265 252 249 254 239 237 245 244 254 244 218 216 219 234 239 215 208 207 211 179 173 179 181 177 162 162 181 172 174 174 178 174 178 175 170 171 172 170 168 163 161 158 156 157 159 162 162 163 162 157 149 143 128 119 115 117 124 144 139 130
156 188 180 220 350 350 266 209 195 162 185 160 182 215 237 223 219 217 232 239 238 238 243 240 241 254 336 287 261 203 233 239 234 241 250 243 249 242 231 220 249 162 193 204 212 161 161 171 167 181 159 162 162 165 172 177 175 175 179 183 185 182 183 175 173 172 171 166 165 166 167 169 172 168 162 166 157 156 148 148 147 153 145 140 139 142 149
167 153 188 246 288 255 245 233 112 155 162 172 186 201 251 208 208 214 223 234 231 234 237 231 225 93 297 270 263 234 227 226 220 226 245 256 257 257 237 159 219 211 198 175 135 173 156 167 165 148 151 163 160 158 173 174 176 183 186 192 191 186 191 182 181 178 177 172 168 170 173 178 173 171 166 148 153 163 159 161 157 150 143 137 142 150 156
139 177 189 205 209 236 102 166 171 168 161 172 157 157 256 146 197 203 215 225 225 222 219 227 201 174 234 247 256 259 234 231 200 223 228 233 248 247 233 212 210 202 190 161 147 139 151 159 167 157 158 157 159 166 175 180 183 187 193 194 191 192 189 179 181 178 174 171 172 172 177 178 173 167 167 163 135 150 143 123 145 128 142 140 140 145 151
195 187 198 216 215 234 199 169 186 143 111 129 126 190 270 188 198 198 193 211 211 210 214 208 163 193 221 235 241 280 67 197 205 201 227 233 233 233 222 235 210 153 144 123 134 168 186 181 151 157 158 166 170 171 173 177 186 195 196 197 197 190 183 173 174 174 172 171 172 173 175 167 164 160 138 141 159 151 147 143 140 141 142 144 136 141 143
194 198 222 305 282 261 239 174 153 142 149 142 174 209 166 181 188 205 194 215 218 209 211 177 202 209 220 234 242 68 145 89 253 349 4 358 354 275 226 218 169 176 178 182 176 184 157 135 150 153 159 160 174 177 169 175 197 198 184 173 183 187 181 173 173 173 173 176 173 174 171 166 156 153 145 150 148 155 150 139 135 137 133 130 124 126 134
185 195 215 228 281 204 175 343 158 152 134 210 203 164 34 128 179 199 196 199 211 197 191 179 210 221 218 231 214 90 98 152 70 301 24 90 10 355 299 298 204 159 158 141 115 111 133 146 148 158 159 168 171 170 176 198 190 144 145 164 168 180 175 177 170 169 174 169 169 165 159 154 154 144 136 143 147 150 132 138 145 144 136 139 142 136 133
100 109 214 187 250 213 151 121 146 280 192 204 137 151 133 275 161 156 195 199 194 178 195 203 213 227 226 219 234 200 161 159 188 180 194 190 190 184 168 175 196 168 153 156 147 137 144 153 157 158 160 168 177 168 195 193 158 155 157 156 163 166 168 162 165 167 167 164 161 157 155 156 153 139 134 141 137 134 143 133 124 131 142 141 140 144 145
175 189 197 212 222 92 145 138 177 200 202 17 148 128 143 184 184 173 158 209 182 182 195 201 217 226 222 196 192 192 194 188 161 195 200 216 184 205 351 16 145 160 130 105 108 110 130 147 156 162 169 167 173 181 193 139 136 128 133 124 144 153 155 158 153 158 152 151 142 134 145 139 138 130 136 130 137 151 146 146 148 149 160 157 152 152 157
193 198 202 92 162 147 171 173 190 173 190 192 211 140 141 154 203 201 184 185 188 200 190 195 191 204 213 221 192 185 200 182 180 184 193 188 191 152 150 122 112 133 136 136 122 126 151 155 167 169 171 164 165 181 143 125 132 137 142 144 151 153 152 149 147 137 136 137 138 138 140 148 145 149 152 153 150 158 157 158 158 157 161 165 166 161 160
231 326 306 110 124 185 182 69 44 165 185 182 177 156 140 206 165 174 187 174 179 184 191 154 196 216 207 196 201 211 195 178 167 157 146 150 136 140 134 136 127 132 120 119 133 139 151 166 162 168 162 162 167 166 126 141 137 137 143 148 152 151 142 142 136 136 133 134 138 142 148 159 155 158 154 162 158 158 168 169 165 157 157 164 165 167 170
173 244 215 161 172 136 194 191 66 305 183 184 187 185 197 184 171 196 228 176 170 169 162 186 177 203 175 186 204 181 162 154 161 174 172 162 175 174 169 136 130 129 138 126 143 147 150 164 138 136 106 78 100 115 139 136 130 138 147 153 147 143 147 141 140 144 149 152 151 152 159 158 162 159 160 165 157 161 173 171 174 172 165 171 172 177 179
190 229 198 168 163 182 189 192 168 171 201 192 217 219 207 189 200 179 149 116 113 136 164 189 182 184 167 166 185 181 187 171 165 176 177 166 162 138 77 107 114 101 136 136 134 139 140 133 112 102 89 70 107 116 120 132 140 142 146 154 146 150 140 142 153 162 160 161 158 162 171 168 165 168 175 179 178 182 180 178 175 180 179 182 184 181 177
218 263 105 161 153 206 220 211 215 192 186 200 213 206 75 51 142 173 147 255 210 176 180 172 175 158 190 187 170 170 161 162 168 182 164 157 151 141 147 150 172 162 151 142 138 124 119 109 97 92 75 81 103 129 133 135 146 148 141 141 119 121 136 140 150 158 160 158 172 164 164 178 186 179 179 185 190 202 208 199 192 175 179 189 190 181 159
218 217 202 143 163 205 198 199 205 214 213 200 197 141 160 176 184 179 171 179 328 297 65 182 184 184 162 163 160 164 176 172 160 158 153 149 141 136 104 100 106 95 99 125 133 123 110 107 100 93 91 88 95 106 137 142 153 146 143 130 133 144 149 156 147 162 164 167 168 160 163 177 175 184 345 338 338 196 197 203 245 277 298 224 194 174 181
217 214 140 172 194 201 179 195 203 208 196 180 185 188 191 200 200 171 147 146 173 207 202 236 204 184 166 171 161 146 171 175 164 159 153 151 150 144 141 124 114 100 106 111 102 101 109 102 98 95 92 78 78 85 101 153 148 141 138 141 141 139 154 167 164 162 158 160 170 171 173 169 171 173 174 198 234 303 6 158 170 173 205 203 184 199 198
233 105 164 178 184 209 187 189 195 201 180 174 195 201 197 190 183 178 187 178 172 184 155 184 228 196 157 157 163 156 142 136 144 144 137 123 115 125 135 126 124 117 116 120 116 124 117 102 94 93 82 67 53 61 57 59 90 126 148 152 155 158 162 148 152 167 164 161 154 169 173 176 180 176 180 176 186 192 188 184 199 198 200 185 200 195 194
210 172 165 176 195 201 64 188 194 195 184 187 196 202 198 190 184 172 185 203 243 168 170 182 186 217 164 158 166 154 146 147 145 131 122 119 132 134 130 124 134 137 137 111 99 112 118 112 88 78 80 67 54 63 67 76 110 141 159 159 140 141 146 150 158 169 165 168 174 177 173 173 185 187 191 189 185 181 174 189 204 211 208 199 202 202 194
96 150 134 92 64 91 148 85 141 183 189 198 210 214 191 194 175 170 197 189 175 174 166 150 155 186 178 153 145 126 112 124 139 135 133 134 131 126 143 147 141 117 111 107 114 122 107 93 97 100 106 87 63 42 83 101 118 143 142 141 138 159 163 161 157 169 175 176 178 181 186 182 188 189 202 201 197 167 159 169 184 212 219 210 203 196 197
92 135 120 96 136 172 205 174 196 196 197 193 196 168 127 117 138 132 65 52 50 29 143 151 134 134 117 107 120 121 131 129 126 130 124 133 143 149 134 120 116 114 113 117 110 115 116 113 108 113 131 146 260 103 128 126 131 128 138 125 126 119 142 160 170 169 173 175 178 180 178 185 191 193 200 203 202 194 195 187 190 190 188 192 202 198 193
156 169 158 173 190 185 205 195 38 100 140 163 157 138 123 112 113 125 125 107 105 81 69 108 138 139 131 147 136 124 125 141 138 142 143 138 123 109 108 105 106 104 98 88 95 94 86 90 109 123 135 173 147 75 112 134 129 132 124 123 135 150 157 174 176 171 174 177 178 182 184 190 191 193 196 195 200 209 199 200 203 183 149 170 172 196 192
173 158 18 11 139 129 84 89 96 97 106 73 88 107 131 129 140 148 158 152 144 136 125 134 105 144 131 144 150 137 144 141 140 146 133 116 105 106 107 107 99 94 94 98 97 111 111 115 127 128 147 138 126 108 120 127 135 134 142 148 158 156 168 172 175 172 166 165 176 179 177 178 180 192 196 199 201 203 196 196 198 196 182 148 134 175 193
144 84 70 72 122 131 129 130 141 141 125 145 137 149 161 145 145 174 162 162 170 169 162 136 131 132 158 137 160 155 154 157 139 115 109 114 110 115 118 118 107 91 98 94 121 132 125 128 129 127 146 153 133 127 127 123 119 124 135 129 138 163 157 145 149 155 153 173 170 159 177 186 192 194 198 199 198 201 203 203 194 192 180 171 178 184 187
128 84 97 107 112 130 147 152 126 131 139 150 149 138 162 170 163 157 171 169 172 139 156 164 149 140 157 151 135 117 93 100 109 110 108 110 114 113 132 177 149 145 142 141 144 138 127 130 122 111 103 119 127 116 114 130 128 125 131 133 131 107 132 151 173 172 175 166 163 177 188 186 197 195 202 200 199 203 207 208 201 201 194 177 188 200 194
111 84 78 61 81 112 106 119 142 155 165 155 149 167 174 169 174 179 171 178 183 164 153 148 158 159 140 128 123 117 107 96 94 98 99 96 96 87 81 90 87 93 98 102 103 109 101 97 82 82 88 106 114 119 143 134 145 158 161 151 146 149 152 156 157 171 168 163 163 177 189 190 199 199 205 209 209 207 207 208 210 206 207 197 196 202 177
109 88 54 68 68 73 150 181 167 176 171 179 191 177 162 153 133 155 159 149 127 146 155 147 137 131 134 133 125 122 113 108 99 101 106 98 83 74 69 70 75 86 79 68 69 70 66 66 68 58 71 88 101 109 105 117 136 149 135 157 143 133 144 168 163 148 159 169 180 192 189 201 206 201 211 208 210 213 215 217 219 218 216 214 214 201 179
166 176 191 182 172 177 180 191 198 161 154 154 142 146 154 149 144 144 145 146 144 145 155 138 126 129 134 133 130 131 134 128 124 124 124 117 109 91 91 91 87 90 85 81 74 69 63 62 74 78 76 65 60 55 70 76 116 106 110 106 117 130 150 143 153 166 161 178 193 190 208 209 221 218 219 216 219 219 221 221 226 224 226 224 219 192 179
26 240 2 56 16 26 109 167 171 170 162 163 159 147 135 130 134 134 132 142 146 126 110 113 121 129 131 132 133 143 145 134 127 121 129 131 131 123 125 119 110 93 80 61 58 59 53 53 62 91 93 84 78 69 59 60 62 101 94 120 129 155 136 139 152 184 196 199 166 185 201 211 223 228 236 238 232 228 231 234 235 233 236 235 234 204 189
11 40 25 31 34 51 85 108 111 116 134 128 121 114 107 107 106 116 115 91 84 106 113 115 125 123 119 125 121 118 115 115 114 113 117 125 136 136 126 115 114 101 90 79 51 40 40 57 46 50 63 79 79 73 68 77 75 74 115 131 138 116 104 115 135 123 221 228 208 218 224 230 241 238 227 230 237 234 236 237 234 236 238 240 239 223 204
25 52 53 54 44 64 68 69 90 105 105 106 104 101 91 75 71 69 79 95 96 98 111 121 116 107 93 75 78 78 76 95 107 114 110 113 126 123 118 110 107 119 107 86 43 28 36 50 38 51 58 73 63 62 66 51 90 99 114 94 94 89 99 104 109 160 231 222 238 240 247 240 236 235 229 231 237 239 234 240 241 240 242 242 237 233 221
42 47 52 53 63 69 64 58 73 83 89 78 65 67 64 73 75 77 75 73 71 55 58 72 90 98 98 87 72 73 68 62 80 97 103 108 118 110 101 98 97 109 88 83 72 87 60 46 41 49 57 54 54 48 67 69 66 70 76 63 69 67 81 78 133 236 245 238 238 238 239 240 243 242 237 231 236 238 241 244 245 247 247 244 241 237 235
58 55 58 61 66 70 76 67 64 64 74 91 95 81 78 84 85 83 74 62 53 67 91 97 101 94 90 89 85 62 40 45 64 87 91 81 74 80 73 54 41 40 93 117 82 72 124 76 57 63 69 55 54 62 61 71 65 50 54 64 66 82 91 204 249 250 253 258 247 244 241 246 249 254 252 252 248 247 245 248 255 258 255 254 250 247 243
58 51 49 63 69 69 72 73 68 68 69 66 82 89 93 92 85 83 80 70 41 56 90 104 102 97 100 99 94 82 46 14 30 76 102 106 100 100 98 72 40 25 31 56 70 62 63 99 93 62 61 53 38 48 47 68 73 67 74 86 122 148 206 219 236 237 239 235 245 246 246 244 247 249 253 255 255 250 254 251 247 247 251 253 252 253 250
51 58 63 60 69 74 80 77 74 67 67 58 59 60 56 78 92 84 71 71 55 48 60 80 101 90 90 94 95 94 82 68 63 45 49 124 107 100 91 101 46 5 7 23 47 102 54 50 100 92 47 42 47 34 35 60 78 101 116 139 185 198 218 219 222 234 233 236 234 242 243 251 249 250 250 250 252 252 251 250 250 249 248 252 254 252 253
63 73 77 73 59 64 65 69 88 74 56 53 48 48 45 41 64 78 79 75 65 59 69 65 71 100 108 102 98 88 70 71 70 51 36 40 45 112 87 77 77 21 340 30 29 59 75 51 57 84 77 37 36 21 1 6 19 221 216 211 213 225 230 236 232 239 241 245 247 250 253 250 251 259 256 253 254 254 253 250 253 253 251 250 251 253 255
66 68 71 79 71 63 58 53 60 77 77 53 43 41 42 45 59 69 69 57 56 64 66 67 66 70 79 92 95 90 87 91 83 88 76 53 32 9 57 101 67 23 342 111 42 45 61 89 35 45 42 54 24 7 341 337 29 246 235 231 228 234 239 231 241 248 248 249 254 255 245 248 259 262 262 262 264 263 262 262 260 263 264 262 262 259 255
61 66 70 76 74 69 68 71 67 61 68 58 50 50 51 46 42 55 68 69 59 50 64 62 56 56 48 39 76 99 103 110 113 120 111 102 72 48 54 59 26 24 20 30 60 40 47 101 59 27 24 18 3 4 3 325 298 265 255 244 252 247 251 248 250 250 251 251 255 255 257 255 252 254 256 258 260 262 258 258 260 263 264 264 264 264 265
50 56 61 73 80 75 66 62 65 73 82 83 71 64 57 54 45 38 56 74 73 63 57 59 59 55 43 38 54 57 63 46 25 314 124 131 110 35 51 35 301 10 23 21 35 60 36 34 210 330 15 18 9 343 8 359 301 280 273 265 254 252 253 250 251 253 254 253 254 257 258 257 257 256 258 259 262 264 264 264 265 263 265 267 267 266 265
50 51 58 66 68 72 76 77 80 91 102 94 76 61 58 65 57 43 36 52 80 74 61 62 65 55 56 78 95 92 81 76 61 34 19 0 65 91 26 8 315 238 4 21 56 35 25 19 14 329 303 9 9 338 259 4 343 286 272 267 259 255 253 257 256 255 255 254 253 255 255 256 256 257 257 260 262 264 266 269 271 271 268 268 268 268 270
56 56 55 59 63 69 76 76 76 80 76 69 64 55 35 39 59 64 47 48 58 71 73 55 53 41 41 23 10 75 89 77 58 38 29 21 65 40 350 7 10 4 283 33 29 30 227 337 9 6 340 297 0 16 352 264 327 330 285 265 266 261 261 258 258 261 260 258 258 258 258 258 260 261 261 261 262 262 264 265 264 265 267 268 270 270 268
68 62 55 59 63 56 63 65 67 58 52 56 78 83 41 35 51 88 87 59 51 52 63 73 58 45 28 27 34 22 0 6 57 72 179 18 14 22 243 247 9 8 352 214 25 17 15 285 281 359 10 351 211 28 22 354 253 304 316 281 268 269 269 263 263 265 264 265 262 260 259 259 258 259 260 259 260 260 262 263 266 268 269 269 269 268 270
64 80 81 68 60 57 59 61 70 77 67 56 63 77 70 53 57 60 57 55 68 67 56 58 62 51 42 23 24 23 15 339 12 44 80 145 290 7 349 315 278 328 7 1 272 287 14 7 333 291 341 6 8 238 345 9 330 270 285 281 274 269 266 266 266 268 266 263 261 260 260 259 259 261 259 261 265 266 265 265 266 267 270 272 273 272 270
42 51 59 56 51 46 42 49 55 77 121 82 47 38 14 349 72 46 40 39 64 85 68 49 47 37 35 34 351 23 19 335 239 20 8 5 240 239 4 3 303 258 315 9 356 262 283 341 349 327 264 351 9 318 240 303 344 273 246 266 271 268 261 265 264 261 258 259 258 261 262 263 263 262 266 268 268 268 268 269 270 270 269 270 271 272 272
37 46 67 68 81 75 47 54 64 58 70 81 65 34 33 47 67 46 33 14 21 55 86 84 51 51 34 28 356 278 338 3 341 275 300 351 353 296 272 340 351 315 291 311 345 320 279 293 351 338 297 278 329 338 295 259 288 304 267 251 258 266 263 260 257 257 259 265 269 266 266 268 267 266 267 267 267 267 269 269 271 272 272 271 272 271 272
67 53 44 62 74 75 86 74 62 60 59 63 81 74 52 47 59 64 43 32 35 37 38 138 154 131 83 335 350 344 262 307 8 358 275 272 345 346 309 293 311 329 300 267 291 330 325 279 288 328 328 289 267 311 316 284 254 267 286 266 253 257 261 260 260 259 262 261 260 263 265 263 265 267 266 264 265 265 267 268 269 269 268 268 268 269 270